Flag for Germany Weather past 2 weeks in Neuwied, Rhineland-Palatinate, Germany

Now
63 °F

Mild.


Feels Like: 63 °F
Forecast: 54 / 72 °F
Wind: 5 mph from Southeast

Location: Buechel

Current Time: Aug 27, 2014 at 7:26:11 PM

Latest Report: Aug 27, 2014 at 6:20 PM


Visibility: N/A

Pressure: 30.04 "Hg

Humidity: 64%

Dew point: 50 °F

Location of NeuwiedLocation

Historic Weather in Neuwied — Graph

°F

Neuwied temperature yesterday

Maximum temperature yesterday: 61 °F (at 2:20 PM)
Minimum temperature yesterday: 52 °F (at 12:20 AM)
Average temperature yesterday: 56 °F

Past Weeks' High & Low Weather Summary

 TemperatureHumidityPressure
High64 °F (Aug 16, 5:20 PM)100% (Aug 14, 7:20 AM)30.12 "Hg (Aug 14, 7:20 AM)
Low41 °F (Aug 24, 7:20 AM)51% (Aug 20, 3:20 PM)29.62 "Hg (Aug 26, 5:20 AM)
Average54 °F82%29.92 "Hg
* Reported Aug 12 5:20 PM — Aug 27 5:20 PM, Neuwied, Weather by CustomWeather, © 2014

Note: Actual official high and low records may vary slightly from our data, if they occured in-between our weather recording intervals... More about our weather records

Advertising

Neuwied weather history for previous 24 hours

 ConditionsComfort  
Time TempWeatherWind HumidityBarometerVisibility
5:20 PM
Aug 27
63 °FScattered clouds.5 mph64%30.04 "HgN/A
4:20 PM61 °FPartly sunny.5 mph68%30.04 "HgN/A
3:20 PM61 °FPartly sunny.6 mph68%30.04 "HgN/A
2:20 PM61 °FBroken clouds.7 mph72%30.04 "HgN/A
1:20 PM57 °FPartly sunny.7 mph77%30.04 "HgN/A
12:20 PM55 °FPartly sunny.7 mph82%30.04 "HgN/A
11:20 AM54 °FPartly sunny.7 mph88%30.04 "HgN/A
10:20 AM54 °FBroken clouds.7 mph88%30.01 "HgN/A
9:20 AM54 °FPartly sunny.7 mph88%29.98 "Hg4 mi
8:20 AM52 °FPartly sunny.6 mph94%29.95 "Hg4 mi
7:20 AM52 °FPassing clouds.7 mph94%29.92 "Hg4 mi
6:20 AM52 °FFog.5 mph100%29.92 "Hg3 mi
5:20 AM52 °FFog.6 mph100%29.89 "Hg3 mi
4:20 AM52 °FFog.6 mph100%29.86 "Hg2 mi
3:20 AM52 °FCool.8 mph100%29.86 "Hg2 mi
2:20 AM54 °FCool.7 mph94%29.83 "Hg3 mi
1:20 AM54 °FCool.8 mph94%29.80 "Hg2 mi
12:20 AM54 °FCool.6 mph100%29.77 "Hg3 mi
11:20 PM
Aug 26
55 °FCool.7 mph94%29.77 "Hg1 mi
10:20 PM57 °FCool.5 mph94%29.77 "Hg5 mi
9:20 PM59 °FCool.5 mph94%29.74 "Hg5 mi
8:20 PM59 °FCool.6 mph94%29.71 "HgN/A
7:20 PM59 °FCool.3 mph94%29.71 "Hg5 mi
Weather by CustomWeather, © 2014

See weather overviewHow to use our weather pages